owner,sensor,date,latitude,longitude,sea_surface_height_above_sea_level,qcFlag 
COMPS,ioos:station:USF.COMPS:FHP:1,2014-08-01T00:00:00Z,28.1530,-82.8010,-0.051,1111122 
COMPS,ioos:station:USF.COMPS:FHP:1,2014-08-01T00:06:00Z,28.1530,-82.8010,-0.069,1111122 
COMPS,ioos:station:USF.COMPS:FHP:1,2014-08-01T00:12:00Z,28.1530,-82.8010,-0.087,1111122 
COMPS,ioos:station:USF.COMPS:FHP:1,2014-08-01T00:18:00Z,28.1530,-82.8010,-0.093,1111122 
COMPS,ioos:station:USF.COMPS:FHP:1,2014-08-01T00:24:00Z,28.1530,-82.8010,-0.109,1111122 
COMPS,ioos:station:USF.COMPS:FHP:1,2014-08-01T00:30:00Z,28.1530,-82.8010,-0.124,1111122 
COMPS,ioos:station:USF.COMPS:FHP:1,2014-08-01T00:36:00Z,28.1530,-82.8010,-0.133,1111122 
COMPS,ioos:station:USF.COMPS:FHP:1,2014-08-01T00:42:00Z,28.1530,-82.8010,-0.142,1111122 
COMPS,ioos:station:USF.COMPS:FHP:1,2014-08-01T00:48:00Z,28.1530,-82.8010,-0.157,1111122 
COMPS,ioos:station:USF.COMPS:FHP:1,2014-08-01T00:54:00Z,28.1530,-82.8010,-0.166,1111122 
COMPS,ioos:station:USF.COMPS:FHP:1,2014-08-01T01:00:00Z,28.1530,-82.8010,-0.176,1111122 
COMPS,ioos:station:USF.COMPS:FHP:1,2014-08-01T01:06:00Z,28.1530,-82.8010,-0.183,1111122 
COMPS,ioos:station:USF.COMPS:FHP:1,2014-08-01T01:18:00Z,28.1530,-82.8010,-0.193,1111122 
COMPS,ioos:station:USF.COMPS:FHP:1,2014-08-01T01:24:00Z,28.1530,-82.8010,-0.193,1111122 
COMPS,ioos:station:USF.COMPS:FHP:1,2014-08-01T01:30:00Z,28.1530,-82.8010,-0.199,1111122 
COMPS,ioos:station:USF.COMPS:FHP:1,2014-08-01T01:42:00Z,28.1530,-82.8010,-0.203,1111122 
COMPS,ioos:station:USF.COMPS:FHP:1,2014-08-01T02:06:00Z,28.1530,-82.8010,-0.199,1111122 
COMPS,ioos:station:USF.COMPS:FHP:1,2014-08-01T02:12:00Z,28.1530,-82.8010,-0.194,1111122 
COMPS,ioos:station:USF.COMPS:FHP:1,2014-08-01T02:18:00Z,28.1530,-82.8010,-0.194,1111122 
COMPS,ioos:station:USF.COMPS:FHP:1,2014-08-01T02:24:00Z,28.1530,-82.8010,-0.186,1111122 
COMPS,ioos:station:USF.COMPS:FHP:1,2014-08-01T02:30:00Z,28.1530,-82.8010,-0.178,1111122 
COMPS,ioos:station:USF.COMPS:FHP:1,2014-08-01T02:36:00Z,28.1530,-82.8010,-0.163,1111122 
COMPS,ioos:station:USF.COMPS:FHP:1,2014-08-01T02:42:00Z,28.1530,-82.8010,-0.156,1111122 
COMPS,ioos:station:USF.COMPS:FHP:1,2014-08-01T02:48:00Z,28.1530,-82.8010,-0.152,1111122 
COMPS,ioos:station:USF.COMPS:FHP:1,2014-08-01T02:54:00Z,28.1530,-82.8010,-0.143,1111122 
COMPS,ioos:station:USF.COMPS:FHP:1,2014-08-01T03:00:00Z,28.1530,-82.8010,-0.136,1111122 
COMPS,ioos:station:USF.COMPS:FHP:1,2014-08-01T03:06:00Z,28.1530,-82.8010,-0.125,1111122 
COMPS,ioos:station:USF.COMPS:FHP:1,2014-08-01T03:12:00Z,28.1530,-82.8010,-0.115,1111122 
COMPS,ioos:station:USF.COMPS:FHP:1,2014-08-01T03:18:00Z,28.1530,-82.8010,-0.106,1111122 
COMPS,ioos:station:USF.COMPS:FHP:1,2014-08-01T03:24:00Z,28.1530,-82.8010,-0.094,1111122 
COMPS,ioos:station:USF.COMPS:FHP:1,2014-08-01T03:30:00Z,28.1530,-82.8010,-0.084,1111122 
COMPS,ioos:station:USF.COMPS:FHP:1,2014-08-01T03:36:00Z,28.1530,-82.8010,-0.07,1111122 
COMPS,ioos:station:USF.COMPS:FHP:1,2014-08-01T03:42:00Z,28.1530,-82.8010,-0.054,1111122 
COMPS,ioos:station:USF.COMPS:FHP:1,2014-08-01T03:48:00Z,28.1530,-82.8010,-0.045,1111122 
COMPS,ioos:station:USF.COMPS:FHP:1,2014-08-01T03:54:00Z,28.1530,-82.8010,-0.032,1111122 
COMPS,ioos:station:USF.COMPS:FHP:1,2014-08-01T04:00:00Z,28.1530,-82.8010,-0.016,1111122 
COMPS,ioos:station:USF.COMPS:FHP:1,2014-08-01T04:06:00Z,28.1530,-82.8010,0.005,1111122 
COMPS,ioos:station:USF.COMPS:FHP:1,2014-08-01T04:12:00Z,28.1530,-82.8010,0.017,1111122 
COMPS,ioos:station:USF.COMPS:FHP:1,2014-08-01T04:18:00Z,28.1530,-82.8010,0.035,1111122 
COMPS,ioos:station:USF.COMPS:FHP:1,2014-08-01T04:24:00Z,28.1530,-82.8010,0.054,1111122 
COMPS,ioos:station:USF.COMPS:FHP:1,2014-08-01T04:30:00Z,28.1530,-82.8010,0.073,1111122 
COMPS,ioos:station:USF.COMPS:FHP:1,2014-08-01T04:36:00Z,28.1530,-82.8010,0.095,1111122 
COMPS,ioos:station:USF.COMPS:FHP:1,2014-08-01T04:42:00Z,28.1530,-82.8010,0.114,1111122 
COMPS,ioos:station:USF.COMPS:FHP:1,2014-08-01T04:48:00Z,28.1530,-82.8010,0.131,1111122 
COMPS,ioos:station:USF.COMPS:FHP:1,2014-08-01T04:54:00Z,28.1530,-82.8010,0.149,1111122 
COMPS,ioos:station:USF.COMPS:FHP:1,2014-08-01T05:00:00Z,28.1530,-82.8010,0.17,1111122 
COMPS,ioos:station:USF.COMPS:FHP:1,2014-08-01T05:06:00Z,28.1530,-82.8010,0.187,1111122 
COMPS,ioos:station:USF.COMPS:FHP:1,2014-08-01T05:12:00Z,28.1530,-82.8010,0.211,1111122 
COMPS,ioos:station:USF.COMPS:FHP:1,2014-08-01T05:18:00Z,28.1530,-82.8010,0.23,1111122 
COMPS,ioos:station:USF.COMPS:FHP:1,2014-08-01T05:24:00Z,28.1530,-82.8010,0.248,1111122 
COMPS,ioos:station:USF.COMPS:FHP:1,2014-08-01T05:30:00Z,28.1530,-82.8010,0.267,1111122 
COMPS,ioos:station:USF.COMPS:FHP:1,2014-08-01T05:36:00Z,28.1530,-82.8010,0.285,1111122 
COMPS,ioos:station:USF.COMPS:FHP:1,2014-08-01T05:42:00Z,28.1530,-82.8010,0.304,1111122 
COMPS,ioos:station:USF.COMPS:FHP:1,2014-08-01T05:48:00Z,28.1530,-82.8010,0.316,1111122 
COMPS,ioos:station:USF.COMPS:FHP:1,2014-08-01T05:54:00Z,28.1530,-82.8010,0.328,1111122 
COMPS,ioos:station:USF.COMPS:FHP:1,2014-08-01T06:00:00Z,28.1530,-82.8010,0.343,1111122 
COMPS,ioos:station:USF.COMPS:FHP:1,2014-08-01T06:12:00Z,28.1530,-82.8010,0.375,1111122 
COMPS,ioos:station:USF.COMPS:FHP:1,2014-08-01T06:18:00Z,28.1530,-82.8010,0.382,1111122 
COMPS,ioos:station:USF.COMPS:FHP:1,2014-08-01T06:24:00Z,28.1530,-82.8010,0.394,1111122 
COMPS,ioos:station:USF.COMPS:FHP:1,2014-08-01T06:30:00Z,28.1530,-82.8010,0.401,1111122 
COMPS,ioos:station:USF.COMPS:FHP:1,2014-08-01T06:36:00Z,28.1530,-82.8010,0.408,1111122 
COMPS,ioos:station:USF.COMPS:FHP:1,2014-08-01T06:42:00Z,28.1530,-82.8010,0.414,1111122 
COMPS,ioos:station:USF.COMPS:FHP:1,2014-08-01T06:48:00Z,28.1530,-82.8010,0.422,1111122 
COMPS,ioos:station:USF.COMPS:FHP:1,2014-08-01T06:54:00Z,28.1530,-82.8010,0.435,1111122 
COMPS,ioos:station:USF.COMPS:FHP:1,2014-08-01T07:00:00Z,28.1530,-82.8010,0.441,1111122 
COMPS,ioos:station:USF.COMPS:FHP:1,2014-08-01T07:06:00Z,28.1530,-82.8010,0.445,1111122 
COMPS,ioos:station:USF.COMPS:FHP:1,2014-08-01T07:12:00Z,28.1530,-82.8010,0.455,1111122 
COMPS,ioos:station:USF.COMPS:FHP:1,2014-08-01T07:18:00Z,28.1530,-82.8010,0.461,1111122 
COMPS,ioos:station:USF.COMPS:FHP:1,2014-08-01T07:24:00Z,28.1530,-82.8010,0.469,1111122 
COMPS,ioos:station:USF.COMPS:FHP:1,2014-08-01T07:30:00Z,28.1530,-82.8010,0.476,1111122 
COMPS,ioos:station:USF.COMPS:FHP:1,2014-08-01T07:36:00Z,28.1530,-82.8010,0.477,1111122 
COMPS,ioos:station:USF.COMPS:FHP:1,2014-08-01T07:42:00Z,28.1530,-82.8010,0.479,1111122 
COMPS,ioos:station:USF.COMPS:FHP:1,2014-08-01T07:54:00Z,28.1530,-82.8010,0.479,1111122 
COMPS,ioos:station:USF.COMPS:FHP:1,2014-08-01T08:00:00Z,28.1530,-82.8010,0.482,1111122 
COMPS,ioos:station:USF.COMPS:FHP:1,2014-08-01T08:06:00Z,28.1530,-82.8010,0.484,1111122 
COMPS,ioos:station:USF.COMPS:FHP:1,2014-08-01T08:12:00Z,28.1530,-82.8010,0.479,1111122 
COMPS,ioos:station:USF.COMPS:FHP:1,2014-08-01T08:18:00Z,28.1530,-82.8010,0.481,1111122 
COMPS,ioos:station:USF.COMPS:FHP:1,2014-08-01T08:30:00Z,28.1530,-82.8010,0.476,1111122 
COMPS,ioos:station:USF.COMPS:FHP:1,2014-08-01T08:36:00Z,28.1530,-82.8010,0.469,1111122 
COMPS,ioos:station:USF.COMPS:FHP:1,2014-08-01T08:42:00Z,28.1530,-82.8010,0.47,1111122 
COMPS,ioos:station:USF.COMPS:FHP:1,2014-08-01T08:48:00Z,28.1530,-82.8010,0.462,1111122 
COMPS,ioos:station:USF.COMPS:FHP:1,2014-08-01T08:54:00Z,28.1530,-82.8010,0.453,1111122 
COMPS,ioos:station:USF.COMPS:FHP:1,2014-08-01T09:00:00Z,28.1530,-82.8010,0.445,1111122 
COMPS,ioos:station:USF.COMPS:FHP:1,2014-08-01T09:06:00Z,28.1530,-82.8010,0.438,1111122 
COMPS,ioos:station:USF.COMPS:FHP:1,2014-08-01T09:12:00Z,28.1530,-82.8010,0.425,1111122 
COMPS,ioos:station:USF.COMPS:FHP:1,2014-08-01T09:18:00Z,28.1530,-82.8010,0.414,1111122 
COMPS,ioos:station:USF.COMPS:FHP:1,2014-08-01T09:24:00Z,28.1530,-82.8010,0.403,1111122 
COMPS,ioos:station:USF.COMPS:FHP:1,2014-08-01T09:30:00Z,28.1530,-82.8010,0.39,1111122 
COMPS,ioos:station:USF.COMPS:FHP:1,2014-08-01T09:42:00Z,28.1530,-82.8010,0.364,1111122 
COMPS,ioos:station:USF.COMPS:FHP:1,2014-08-01T09:48:00Z,28.1530,-82.8010,0.348,1111122 
COMPS,ioos:station:USF.COMPS:FHP:1,2014-08-01T09:54:00Z,28.1530,-82.8010,0.336,1111122 
COMPS,ioos:station:USF.COMPS:FHP:1,2014-08-01T10:00:00Z,28.1530,-82.8010,0.321,1111122 
COMPS,ioos:station:USF.COMPS:FHP:1,2014-08-01T10:06:00Z,28.1530,-82.8010,0.315,1111122 
COMPS,ioos:station:USF.COMPS:FHP:1,2014-08-01T10:12:00Z,28.1530,-82.8010,0.298,1111122 
COMPS,ioos:station:USF.COMPS:FHP:1,2014-08-01T10:24:00Z,28.1530,-82.8010,0.269,1111122 
COMPS,ioos:station:USF.COMPS:FHP:1,2014-08-01T10:30:00Z,28.1530,-82.8010,0.257,1111122 
COMPS,ioos:station:USF.COMPS:FHP:1,2014-08-01T10:36:00Z,28.1530,-82.8010,0.245,1111122 
COMPS,ioos:station:USF.COMPS:FHP:1,2014-08-01T10:48:00Z,28.1530,-82.8010,0.219,1111122 
COMPS,ioos:station:USF.COMPS:FHP:1,2014-08-01T10:54:00Z,28.1530,-82.8010,0.207,1111122 
COMPS,ioos:station:USF.COMPS:FHP:1,2014-08-01T11:00:00Z,28.1530,-82.8010,0.191,1111122 
COMPS,ioos:station:USF.COMPS:FHP:1,2014-08-01T11:06:00Z,28.1530,-82.8010,0.18,1111122 
COMPS,ioos:station:USF.COMPS:FHP:1,2014-08-01T11:12:00Z,28.1530,-82.8010,0.163,1111122 
COMPS,ioos:station:USF.COMPS:FHP:1,2014-08-01T11:18:00Z,28.1530,-82.8010,0.146,1111122 
COMPS,ioos:station:USF.COMPS:FHP:1,2014-08-01T11:24:00Z,28.1530,-82.8010,0.13,1111122 
COMPS,ioos:station:USF.COMPS:FHP:1,2014-08-01T11:30:00Z,28.1530,-82.8010,0.111,1111122 
COMPS,ioos:station:USF.COMPS:FHP:1,2014-08-01T11:36:00Z,28.1530,-82.8010,0.098,1111122 
COMPS,ioos:station:USF.COMPS:FHP:1,2014-08-01T11:42:00Z,28.1530,-82.8010,0.085,1111122 
COMPS,ioos:station:USF.COMPS:FHP:1,2014-08-01T11:48:00Z,28.1530,-82.8010,0.071,1111122 
COMPS,ioos:station:USF.COMPS:FHP:1,2014-08-01T11:54:00Z,28.1530,-82.8010,0.056,1111122 
COMPS,ioos:station:USF.COMPS:FHP:1,2014-08-01T12:00:00Z,28.1530,-82.8010,0.038,1111122 
COMPS,ioos:station:USF.COMPS:FHP:1,2014-08-01T12:06:00Z,28.1530,-82.8010,0.027,1111122 
COMPS,ioos:station:USF.COMPS:FHP:1,2014-08-01T12:12:00Z,28.1530,-82.8010,0.012,1111122 
COMPS,ioos:station:USF.COMPS:FHP:1,2014-08-01T12:18:00Z,28.1530,-82.8010,0.0,1114422 
COMPS,ioos:station:USF.COMPS:FHP:1,2014-08-01T12:24:00Z,28.1530,-82.8010,-0.013,1111122 
COMPS,ioos:station:USF.COMPS:FHP:1,2014-08-01T12:30:00Z,28.1530,-82.8010,-0.023,1111122 
COMPS,ioos:station:USF.COMPS:FHP:1,2014-08-01T12:36:00Z,28.1530,-82.8010,-0.033,1111122 
COMPS,ioos:station:USF.COMPS:FHP:1,2014-08-01T12:42:00Z,28.1530,-82.8010,-0.047,1111122 
COMPS,ioos:station:USF.COMPS:FHP:1,2014-08-01T12:54:00Z,28.1530,-82.8010,-0.064,1111122 
COMPS,ioos:station:USF.COMPS:FHP:1,2014-08-01T13:00:00Z,28.1530,-82.8010,-0.074,1111122 
COMPS,ioos:station:USF.COMPS:FHP:1,2014-08-01T13:06:00Z,28.1530,-82.8010,-0.08,1111122 
COMPS,ioos:station:USF.COMPS:FHP:1,2014-08-01T13:12:00Z,28.1530,-82.8010,-0.09,1111122 
COMPS,ioos:station:USF.COMPS:FHP:1,2014-08-01T13:18:00Z,28.1530,-82.8010,-0.102,1111122 
COMPS,ioos:station:USF.COMPS:FHP:1,2014-08-01T13:24:00Z,28.1530,-82.8010,-0.11,1111122 
COMPS,ioos:station:USF.COMPS:FHP:1,2014-08-01T13:30:00Z,28.1530,-82.8010,-0.115,1111122 
COMPS,ioos:station:USF.COMPS:FHP:1,2014-08-01T13:36:00Z,28.1530,-82.8010,-0.111,1111122 
COMPS,ioos:station:USF.COMPS:FHP:1,2014-08-01T13:42:00Z,28.1530,-82.8010,-0.117,1111122 
COMPS,ioos:station:USF.COMPS:FHP:1,2014-08-01T13:48:00Z,28.1530,-82.8010,-0.118,1111122 
COMPS,ioos:station:USF.COMPS:FHP:1,2014-08-01T13:54:00Z,28.1530,-82.8010,-0.127,1111122 
COMPS,ioos:station:USF.COMPS:FHP:1,2014-08-01T14:00:00Z,28.1530,-82.8010,-0.128,1111122 
COMPS,ioos:station:USF.COMPS:FHP:1,2014-08-01T14:06:00Z,28.1530,-82.8010,-0.125,1111122 
COMPS,ioos:station:USF.COMPS:FHP:1,2014-08-01T14:12:00Z,28.1530,-82.8010,-0.121,1111122 
COMPS,ioos:station:USF.COMPS:FHP:1,2014-08-01T14:18:00Z,28.1530,-82.8010,-0.115,1111122 
COMPS,ioos:station:USF.COMPS:FHP:1,2014-08-01T14:24:00Z,28.1530,-82.8010,-0.113,1111122 
COMPS,ioos:station:USF.COMPS:FHP:1,2014-08-01T14:30:00Z,28.1530,-82.8010,-0.103,1111122 
COMPS,ioos:station:USF.COMPS:FHP:1,2014-08-01T14:36:00Z,28.1530,-82.8010,-0.102,1111122 
COMPS,ioos:station:USF.COMPS:FHP:1,2014-08-01T14:42:00Z,28.1530,-82.8010,-0.088,1111122 
COMPS,ioos:station:USF.COMPS:FHP:1,2014-08-01T14:48:00Z,28.1530,-82.8010,-0.078,1111122 
COMPS,ioos:station:USF.COMPS:FHP:1,2014-08-01T14:54:00Z,28.1530,-82.8010,-0.07,1111122 
COMPS,ioos:station:USF.COMPS:FHP:1,2014-08-01T15:00:00Z,28.1530,-82.8010,-0.065,1111122 
COMPS,ioos:station:USF.COMPS:FHP:1,2014-08-01T15:06:00Z,28.1530,-82.8010,-0.062,1111122 
COMPS,ioos:station:USF.COMPS:FHP:1,2014-08-01T15:12:00Z,28.1530,-82.8010,-0.041,1111122 
COMPS,ioos:station:USF.COMPS:FHP:1,2014-08-01T15:18:00Z,28.1530,-82.8010,-0.038,1111122 
COMPS,ioos:station:USF.COMPS:FHP:1,2014-08-01T15:24:00Z,28.1530,-82.8010,-0.025,1111122 
COMPS,ioos:station:USF.COMPS:FHP:1,2014-08-01T15:30:00Z,28.1530,-82.8010,-0.011,1111122 
COMPS,ioos:station:USF.COMPS:FHP:1,2014-08-01T15:36:00Z,28.1530,-82.8010,-0.006,1111122 
COMPS,ioos:station:USF.COMPS:FHP:1,2014-08-01T15:42:00Z,28.1530,-82.8010,0.007,1111122 
COMPS,ioos:station:USF.COMPS:FHP:1,2014-08-01T15:48:00Z,28.1530,-82.8010,0.018,1111122 
COMPS,ioos:station:USF.COMPS:FHP:1,2014-08-01T15:54:00Z,28.1530,-82.8010,0.032,1111122 
COMPS,ioos:station:USF.COMPS:FHP:1,2014-08-01T16:00:00Z,28.1530,-82.8010,0.045,1111122 
COMPS,ioos:station:USF.COMPS:FHP:1,2014-08-01T16:06:00Z,28.1530,-82.8010,0.055,1111122 
COMPS,ioos:station:USF.COMPS:FHP:1,2014-08-01T16:12:00Z,28.1530,-82.8010,0.066,1111122 
COMPS,ioos:station:USF.COMPS:FHP:1,2014-08-01T16:18:00Z,28.1530,-82.8010,0.081,1111122 
COMPS,ioos:station:USF.COMPS:FHP:1,2014-08-01T16:24:00Z,28.1530,-82.8010,0.098,1111122 
COMPS,ioos:station:USF.COMPS:FHP:1,2014-08-01T16:30:00Z,28.1530,-82.8010,0.113,1111122 
COMPS,ioos:station:USF.COMPS:FHP:1,2014-08-01T16:36:00Z,28.1530,-82.8010,0.125,1111122 
COMPS,ioos:station:USF.COMPS:FHP:1,2014-08-01T16:42:00Z,28.1530,-82.8010,0.137,1111122 
COMPS,ioos:station:USF.COMPS:FHP:1,2014-08-01T16:48:00Z,28.1530,-82.8010,0.154,1111122 
COMPS,ioos:station:USF.COMPS:FHP:1,2014-08-01T16:54:00Z,28.1530,-82.8010,0.17,1111122 
COMPS,ioos:station:USF.COMPS:FHP:1,2014-08-01T17:00:00Z,28.1530,-82.8010,0.185,1111122 
COMPS,ioos:station:USF.COMPS:FHP:1,2014-08-01T17:06:00Z,28.1530,-82.8010,0.199,1111122 
COMPS,ioos:station:USF.COMPS:FHP:1,2014-08-01T17:12:00Z,28.1530,-82.8010,0.213,1111122 
COMPS,ioos:station:USF.COMPS:FHP:1,2014-08-01T17:18:00Z,28.1530,-82.8010,0.224,1111122 
COMPS,ioos:station:USF.COMPS:FHP:1,2014-08-01T17:24:00Z,28.1530,-82.8010,0.235,1111122 
COMPS,ioos:station:USF.COMPS:FHP:1,2014-08-01T17:30:00Z,28.1530,-82.8010,0.238,1111122 
COMPS,ioos:station:USF.COMPS:FHP:1,2014-08-01T17:36:00Z,28.1530,-82.8010,0.254,1111122 
COMPS,ioos:station:USF.COMPS:FHP:1,2014-08-01T17:42:00Z,28.1530,-82.8010,0.264,1111122 
COMPS,ioos:station:USF.COMPS:FHP:1,2014-08-01T17:48:00Z,28.1530,-82.8010,0.269,1111122 
COMPS,ioos:station:USF.COMPS:FHP:1,2014-08-01T17:54:00Z,28.1530,-82.8010,0.275,1111122 
COMPS,ioos:station:USF.COMPS:FHP:1,2014-08-01T18:00:00Z,28.1530,-82.8010,0.289,1111122 
COMPS,ioos:station:USF.COMPS:FHP:1,2014-08-01T18:06:00Z,28.1530,-82.8010,0.298,1111122 
COMPS,ioos:station:USF.COMPS:FHP:1,2014-08-01T18:12:00Z,28.1530,-82.8010,0.32,1111122 
COMPS,ioos:station:USF.COMPS:FHP:1,2014-08-01T18:18:00Z,28.1530,-82.8010,0.326,1111122 
COMPS,ioos:station:USF.COMPS:FHP:1,2014-08-01T18:24:00Z,28.1530,-82.8010,0.336,1111122 
COMPS,ioos:station:USF.COMPS:FHP:1,2014-08-01T18:30:00Z,28.1530,-82.8010,0.348,1111122 
COMPS,ioos:station:USF.COMPS:FHP:1,2014-08-01T18:36:00Z,28.1530,-82.8010,0.362,1111122 
COMPS,ioos:station:USF.COMPS:FHP:1,2014-08-01T18:42:00Z,28.1530,-82.8010,0.368,1111122 
COMPS,ioos:station:USF.COMPS:FHP:1,2014-08-01T18:48:00Z,28.1530,-82.8010,0.383,1111122 
COMPS,ioos:station:USF.COMPS:FHP:1,2014-08-01T18:54:00Z,28.1530,-82.8010,0.396,1111122 
COMPS,ioos:station:USF.COMPS:FHP:1,2014-08-01T19:00:00Z,28.1530,-82.8010,0.402,1111122 
COMPS,ioos:station:USF.COMPS:FHP:1,2014-08-01T19:06:00Z,28.1530,-82.8010,0.416,1111122 
COMPS,ioos:station:USF.COMPS:FHP:1,2014-08-01T19:12:00Z,28.1530,-82.8010,0.414,1111122 
COMPS,ioos:station:USF.COMPS:FHP:1,2014-08-01T19:18:00Z,28.1530,-82.8010,0.419,1111122 
COMPS,ioos:station:USF.COMPS:FHP:1,2014-08-01T19:24:00Z,28.1530,-82.8010,0.424,1111122 
COMPS,ioos:station:USF.COMPS:FHP:1,2014-08-01T19:30:00Z,28.1530,-82.8010,0.421,1111122 
COMPS,ioos:station:USF.COMPS:FHP:1,2014-08-01T19:36:00Z,28.1530,-82.8010,0.406,1111122 
COMPS,ioos:station:USF.COMPS:FHP:1,2014-08-01T19:42:00Z,28.1530,-82.8010,0.42,1111122 
COMPS,ioos:station:USF.COMPS:FHP:1,2014-08-01T19:48:00Z,28.1530,-82.8010,0.422,1111122 
COMPS,ioos:station:USF.COMPS:FHP:1,2014-08-01T19:54:00Z,28.1530,-82.8010,0.419,1111122 
COMPS,ioos:station:USF.COMPS:FHP:1,2014-08-01T20:00:00Z,28.1530,-82.8010,0.421,1111122 
COMPS,ioos:station:USF.COMPS:FHP:1,2014-08-01T20:06:00Z,28.1530,-82.8010,0.414,1111122 
COMPS,ioos:station:USF.COMPS:FHP:1,2014-08-01T20:12:00Z,28.1530,-82.8010,0.401,1111122 
COMPS,ioos:station:USF.COMPS:FHP:1,2014-08-01T20:18:00Z,28.1530,-82.8010,0.399,1111122 
COMPS,ioos:station:USF.COMPS:FHP:1,2014-08-01T20:24:00Z,28.1530,-82.8010,0.389,1111122 
COMPS,ioos:station:USF.COMPS:FHP:1,2014-08-01T20:30:00Z,28.1530,-82.8010,0.374,1111122 
COMPS,ioos:station:USF.COMPS:FHP:1,2014-08-01T20:36:00Z,28.1530,-82.8010,0.38,1111122 
COMPS,ioos:station:USF.COMPS:FHP:1,2014-08-01T20:42:00Z,28.1530,-82.8010,0.369,1111122 
COMPS,ioos:station:USF.COMPS:FHP:1,2014-08-01T20:48:00Z,28.1530,-82.8010,0.356,1111122 
COMPS,ioos:station:USF.COMPS:FHP:1,2014-08-01T20:54:00Z,28.1530,-82.8010,0.354,1111122 
COMPS,ioos:station:USF.COMPS:FHP:1,2014-08-01T21:00:00Z,28.1530,-82.8010,0.349,1111122 
COMPS,ioos:station:USF.COMPS:FHP:1,2014-08-01T21:06:00Z,28.1530,-82.8010,0.326,1111122 
COMPS,ioos:station:USF.COMPS:FHP:1,2014-08-01T21:12:00Z,28.1530,-82.8010,0.353,1111122 
COMPS,ioos:station:USF.COMPS:FHP:1,2014-08-01T21:18:00Z,28.1530,-82.8010,0.354,1111122 
COMPS,ioos:station:USF.COMPS:FHP:1,2014-08-01T21:24:00Z,28.1530,-82.8010,0.357,1111122 
COMPS,ioos:station:USF.COMPS:FHP:1,2014-08-01T21:30:00Z,28.1530,-82.8010,0.352,1111122 
COMPS,ioos:station:USF.COMPS:FHP:1,2014-08-01T21:36:00Z,28.1530,-82.8010,0.338,1111122 
COMPS,ioos:station:USF.COMPS:FHP:1,2014-08-01T21:42:00Z,28.1530,-82.8010,0.33,1111122 
COMPS,ioos:station:USF.COMPS:FHP:1,2014-08-01T21:48:00Z,28.1530,-82.8010,0.318,1111122 
COMPS,ioos:station:USF.COMPS:FHP:1,2014-08-01T21:54:00Z,28.1530,-82.8010,0.307,1111122 
COMPS,ioos:station:USF.COMPS:FHP:1,2014-08-01T22:00:00Z,28.1530,-82.8010,0.294,1111122 
COMPS,ioos:station:USF.COMPS:FHP:1,2014-08-01T22:06:00Z,28.1530,-82.8010,0.272,1111122 
COMPS,ioos:station:USF.COMPS:FHP:1,2014-08-01T22:12:00Z,28.1530,-82.8010,0.275,1111122 
COMPS,ioos:station:USF.COMPS:FHP:1,2014-08-01T22:18:00Z,28.1530,-82.8010,0.262,1111122 
COMPS,ioos:station:USF.COMPS:FHP:1,2014-08-01T22:24:00Z,28.1530,-82.8010,0.262,1111122 
COMPS,ioos:station:USF.COMPS:FHP:1,2014-08-01T22:30:00Z,28.1530,-82.8010,0.252,1111122 
COMPS,ioos:station:USF.COMPS:FHP:1,2014-08-01T22:36:00Z,28.1530,-82.8010,0.248,1111122 
COMPS,ioos:station:USF.COMPS:FHP:1,2014-08-01T22:42:00Z,28.1530,-82.8010,0.228,1111122 
COMPS,ioos:station:USF.COMPS:FHP:1,2014-08-01T22:48:00Z,28.1530,-82.8010,0.218,1111122 
COMPS,ioos:station:USF.COMPS:FHP:1,2014-08-01T22:54:00Z,28.1530,-82.8010,0.207,1111122 
COMPS,ioos:station:USF.COMPS:FHP:1,2014-08-01T23:00:00Z,28.1530,-82.8010,0.194,1111122 
COMPS,ioos:station:USF.COMPS:FHP:1,2014-08-01T23:06:00Z,28.1530,-82.8010,0.184,1111122 
COMPS,ioos:station:USF.COMPS:FHP:1,2014-08-01T23:12:00Z,28.1530,-82.8010,0.165,1111122 
COMPS,ioos:station:USF.COMPS:FHP:1,2014-08-01T23:18:00Z,28.1530,-82.8010,0.155,1111122 
COMPS,ioos:station:USF.COMPS:FHP:1,2014-08-01T23:24:00Z,28.1530,-82.8010,0.135,1111122 
COMPS,ioos:station:USF.COMPS:FHP:1,2014-08-01T23:30:00Z,28.1530,-82.8010,0.109,1111122 
COMPS,ioos:station:USF.COMPS:FHP:1,2014-08-01T23:36:00Z,28.1530,-82.8010,0.096,1111122 
COMPS,ioos:station:USF.COMPS:FHP:1,2014-08-01T23:48:00Z,28.1530,-82.8010,0.066,1111122 
COMPS,ioos:station:USF.COMPS:FHP:1,2014-08-01T23:54:00Z,28.1530,-82.8010,0.048,1111122 
COMPS,ioos:station:USF.COMPS:FHP:1,2014-08-02T00:00:00Z,28.1530,-82.8010,0.037,1111122 
COMPS,ioos:station:USF.COMPS:FHP:1,2014-08-02T00:06:00Z,28.1530,-82.8010,0.018,1111122 
COMPS,ioos:station:USF.COMPS:FHP:1,2014-08-02T00:12:00Z,28.1530,-82.8010,0.003,1111122 
COMPS,ioos:station:USF.COMPS:FHP:1,2014-08-02T00:18:00Z,28.1530,-82.8010,-0.005,1111122 
COMPS,ioos:station:USF.COMPS:FHP:1,2014-08-02T00:24:00Z,28.1530,-82.8010,-0.014,1111122 
COMPS,ioos:station:USF.COMPS:FHP:1,2014-08-02T00:30:00Z,28.1530,-82.8010,-0.023,1111122 
COMPS,ioos:station:USF.COMPS:FHP:1,2014-08-02T00:36:00Z,28.1530,-82.8010,-0.032,1111122 
COMPS,ioos:station:USF.COMPS:FHP:1,2014-08-02T00:42:00Z,28.1530,-82.8010,-0.038,1111122 
COMPS,ioos:station:USF.COMPS:FHP:1,2014-08-02T00:48:00Z,28.1530,-82.8010,-0.046,1111122 
COMPS,ioos:station:USF.COMPS:FHP:1,2014-08-02T00:54:00Z,28.1530,-82.8010,-0.047,1111122 
COMPS,ioos:station:USF.COMPS:FHP:1,2014-08-02T01:00:00Z,28.1530,-82.8010,-0.062,1111122 
COMPS,ioos:station:USF.COMPS:FHP:1,2014-08-02T01:06:00Z,28.1530,-82.8010,-0.071,1111122 
COMPS,ioos:station:USF.COMPS:FHP:1,2014-08-02T01:12:00Z,28.1530,-82.8010,-0.087,1111122 
COMPS,ioos:station:USF.COMPS:FHP:1,2014-08-02T01:24:00Z,28.1530,-82.8010,-0.111,1111122 
COMPS,ioos:station:USF.COMPS:FHP:1,2014-08-02T01:30:00Z,28.1530,-82.8010,-0.115,1111122 
COMPS,ioos:station:USF.COMPS:FHP:1,2014-08-02T01:42:00Z,28.1530,-82.8010,-0.125,1111122 
COMPS,ioos:station:USF.COMPS:FHP:1,2014-08-02T01:48:00Z,28.1530,-82.8010,-0.125,1111122 
COMPS,ioos:station:USF.COMPS:FHP:1,2014-08-02T02:00:00Z,28.1530,-82.8010,-0.129,1111122 
COMPS,ioos:station:USF.COMPS:FHP:1,2014-08-02T02:06:00Z,28.1530,-82.8010,-0.144,1111122 
COMPS,ioos:station:USF.COMPS:FHP:1,2014-08-02T02:12:00Z,28.1530,-82.8010,-0.143,1111122 
COMPS,ioos:station:USF.COMPS:FHP:1,2014-08-02T02:42:00Z,28.1530,-82.8010,-0.137,1111122 
COMPS,ioos:station:USF.COMPS:FHP:1,2014-08-02T02:48:00Z,28.1530,-82.8010,-0.123,1111122 
COMPS,ioos:station:USF.COMPS:FHP:1,2014-08-02T02:54:00Z,28.1530,-82.8010,-0.111,1111122 
COMPS,ioos:station:USF.COMPS:FHP:1,2014-08-02T03:00:00Z,28.1530,-82.8010,-0.103,1111122 
COMPS,ioos:station:USF.COMPS:FHP:1,2014-08-02T03:06:00Z,28.1530,-82.8010,-0.098,1111122 
COMPS,ioos:station:USF.COMPS:FHP:1,2014-08-02T03:12:00Z,28.1530,-82.8010,-0.092,1111122 
COMPS,ioos:station:USF.COMPS:FHP:1,2014-08-02T03:18:00Z,28.1530,-82.8010,-0.08,1111122 
COMPS,ioos:station:USF.COMPS:FHP:1,2014-08-02T03:30:00Z,28.1530,-82.8010,-0.074,1111122 
COMPS,ioos:station:USF.COMPS:FHP:1,2014-08-02T03:36:00Z,28.1530,-82.8010,-0.05,1111122 
COMPS,ioos:station:USF.COMPS:FHP:1,2014-08-02T03:48:00Z,28.1530,-82.8010,-0.037,1111122 
COMPS,ioos:station:USF.COMPS:FHP:1,2014-08-02T03:54:00Z,28.1530,-82.8010,-0.023,1111122 
COMPS,ioos:station:USF.COMPS:FHP:1,2014-08-02T04:06:00Z,28.1530,-82.8010,-0.001,1111122 
COMPS,ioos:station:USF.COMPS:FHP:1,2014-08-02T04:12:00Z,28.1530,-82.8010,0.01,1111122 
COMPS,ioos:station:USF.COMPS:FHP:1,2014-08-02T04:18:00Z,28.1530,-82.8010,0.029,1111122 
COMPS,ioos:station:USF.COMPS:FHP:1,2014-08-02T04:24:00Z,28.1530,-82.8010,0.045,1111122 
COMPS,ioos:station:USF.COMPS:FHP:1,2014-08-02T04:30:00Z,28.1530,-82.8010,0.048,1111122 
COMPS,ioos:station:USF.COMPS:FHP:1,2014-08-02T04:36:00Z,28.1530,-82.8010,0.067,1111122 
COMPS,ioos:station:USF.COMPS:FHP:1,2014-08-02T04:42:00Z,28.1530,-82.8010,0.075,1111122 
COMPS,ioos:station:USF.COMPS:FHP:1,2014-08-02T04:48:00Z,28.1530,-82.8010,0.086,1111122 
COMPS,ioos:station:USF.COMPS:FHP:1,2014-08-02T04:54:00Z,28.1530,-82.8010,0.099,1111122 
COMPS,ioos:station:USF.COMPS:FHP:1,2014-08-02T05:00:00Z,28.1530,-82.8010,0.11,1111122 
COMPS,ioos:station:USF.COMPS:FHP:1,2014-08-02T05:06:00Z,28.1530,-82.8010,0.126,1111122 
COMPS,ioos:station:USF.COMPS:FHP:1,2014-08-02T05:12:00Z,28.1530,-82.8010,0.145,1111122 